This is the latest recevied weather packets stored in our database for station/object HP1COO-13. If no packets are shown the sender has not sent any weather packets the latest 10 day(s).
| Time | Temp. | Humidity | Pressure | Rain* | Wind** | Luminosity | Snow |
|---|---|---|---|---|---|---|---|
| 1788563425 | 30° C | 85% | 1005.8 hPa | 0 mm | - | - | - |
| 1788562792 | 30° C | 84% | 1005.6 hPa | 0 mm | - | - | - |
| 1788562159 | 30° C | 84% | 1005.6 hPa | 0 mm | - | - | - |
| 1788560893 | 30° C | 84% | 1005.3 hPa | 0 mm | - | - | - |
| 1788560264 | 30.56° C | 83% | 1005.2 hPa | 0 mm | - | - | - |
| 1788559627 | 30.56° C | 82% | 1005.4 hPa | 0 mm | - | - | - |
| 1788558994 | 30.56° C | 82% | 1005.4 hPa | 0 mm | - | - | - |
| 1788558361 | 30° C | 81% | 1005.4 hPa | 0 mm | - | - | - |
| 1788557728 | 30.56° C | 79% | 1005.2 hPa | 0 mm | - | - | - |
| 1788556462 | 31.11° C | 78% | 1005.9 hPa | 0 mm | - | - | - |
| 1788555829 | 31.11° C | 77% | 1006 hPa | 0 mm | - | - | - |
| 1788555196 | 30.56° C | 80% | 1006.2 hPa | 0 mm | - | - | - |
| 1788554563 | 30° C | 82% | 1006.3 hPa | 0 mm | - | - | - |
| 1788553930 | 29.44° C | 86% | 1006.2 hPa | 0 mm | - | - | - |
| 1788553297 | 28.89° C | 86% | 1006.3 hPa | 0 mm | - | - | - |
| 1788552664 | 29.44° C | 85% | 1006.2 hPa | 0 mm | - | - | - |
| 1788552031 | 29.44° C | 85% | 1006.8 hPa | 0 mm | - | - | - |
| 1788551398 | 29.44° C | 84% | 1006.6 hPa | 0 mm | - | - | - |
| 1788550765 | 28.89° C | 83% | 1006 hPa | 0 mm | - | - | - |
| 1788550132 | 27.78° C | 86% | 1006.4 hPa | 0 mm | - | - | - |
| 1788549499 | 27.22° C | 87% | 1006.7 hPa | 0 mm | - | - | - |
| 1788548866 | 27.22° C | 90% | 1006.8 hPa | 2.79 mm | - | - | - |
| 1788547600 | 27.22° C | 93% | 1007.8 hPa | 4.06 mm | - | - | - |
| 1788546967 | 27.22° C | 92% | 1007.7 hPa | 4.06 mm | - | - | - |
| 1788546334 | 27.22° C | 91% | 1007.9 hPa | 4.06 mm | - | - | - |
* Rain latest hour (hover to see other rain measurements)
** Current wind speed in m/s (hover to see current wind gust speed)